Regional Weather Roundup
Issued by NWS

Home | Current Version | Previous Version | Text Only | Print | Product List | Glossary Off
Versions: 1 2 3 4 5 6 7 8 9 10 11 12 13 14 15 16 17 18 19 20 21 22 23 24 25 26 27 28 29 30 31 32 33 34 35 36 37 38 39 40 41 42 43 44 45 46 47 48 49 50

000
ASUS43 KMPX 030310
RWRMN
WEATHER ROUNDUP FOR MINNESOTA
NATIONAL WEATHER SERVICE TWIN CITIES/CHANHASSEN MN
1000 PM CDT SUN AUG 02 2015


NOTE: "FAIR" INDICATES FEW OR NO CLOUDS BELOW 12,000 FEET WITH NO
SIGNIFICANT WEATHER AND/OR OBSTRUCTIONS TO VISIBILITY. N/A MEANS
CURRENT SKY AND/OR WEATHER CONDITIONS ARE NOT AVAILABLE.

MNZ060>063-068>070-030400-
   Twin Cities Metro

CITY           SKY/WX    TMP DP  RH WIND       PRES   REMARKS
TWIN CITIES    CLEAR     73  51  46 NW13      29.81R
ST PAUL        CLEAR     71  51  49 NW16      29.80R
CRYSTAL        CLEAR     71  52  50 NW9       29.80R
BLAINE         CLEAR     70  52  52 NW8       29.81R
LAKEVILLE      CLEAR     66  55  68 NW6       29.81R
EDEN PRAIRIE   CLEAR     72  51  47 NW12      29.80R
SOUTH ST PAUL  CLEAR     73  48  41 NW9G17    29.80R
LAKE ELMO      FAIR      70  54  56 NW9       29.81R
$$
MNZ001>005-007-008-013>017-022>024-027-028-030400-
   Northwest Minnesota

CITY           SKY/WX    TMP DP  RH WIND       PRES   REMARKS
BEMIDJI        CLEAR     57  44  60 W6        29.82S
HALLOCK        CLEAR     61  50  67 NW3       29.83R
ROSEAU         CLEAR     61  48  63 NW6       29.81R
WARROAD        CLEAR     61  46  59 W7        29.80S
THIEF RVR FALL CLEAR     61  52  72 CALM      29.84R
CROOKSTON      CLEAR     61  52  72 NW7       29.84R
FOSSTON        PTCLDY    55  48  76 CALM      29.85R
DETROIT LAKES  CLEAR     64  50  59 W7        29.86S
MOORHEAD       CLEAR     61  52  72 W7        29.86R
PARK RAPIDS    CLEAR     59  48  67 W5        29.83R
MAHNOMEN       FAIR      60  53  78 W7        29.84R
$$
MNZ006-009>011-018-025>026-030400-
   North Central Minnesota

CITY           SKY/WX    TMP DP  RH WIND       PRES   REMARKS
BAUDETTE       CLOUDY    65  47  52 NW9G21    29.78R
FLAG ISLAND    CLOUDY    66  50  55 NW15      29.76S
INTL FALLS     CLOUDY    63  47  55 NW8       29.76R
WASKISH        CLEAR     64  48  55 W12       29.80R
BIG FORK       CLEAR     63  43  48 W3        29.79R
LONGVILLE      CLEAR     66  45  45 NW6       29.81S
GRAND RAPIDS   CLEAR     64  45  48 NW12      29.79S
CRANE LAKE     MOCLDY    54  52  94 CALM      29.76R
ORR            CLOUDY    64  45  48 NW7       29.74R
COOK           CLOUDY    63  48  59 W3        29.77R
WALKER         FAIR      56  49  75 CALM      29.82S
$$
MNZ012-019>021-037-030400-
   Northeast Minnesota

CITY           SKY/WX    TMP DP  RH WIND       PRES   REMARKS
DULUTH         PTCLDY    61  47  59 W8        29.76R
ELY            CLOUDY    63  46  55 NW3       29.75R
HIBBING        CLOUDY    65  46  50 NW10      29.77R
EVELETH        MOCLDY    63  46  55 NW9       29.78R
DULUTH HARBOR  CLEAR     70  52  52 W12       29.75R
TWO HARBORS    CLEAR     63  52  67 CALM      29.72S
SILVER BAY     PTCLDY    59  48  67 CALM      29.71S
GRAND MARAIS     N/A     65  47  52 VRB6      29.68R
G MARAIS ARPRT   N/A     59  45  58 W13       29.72R
$$
MNZ029>031-032-039>041-046>048-054>057-064-030400-
   West Central Minnesota

CITY           SKY/WX    TMP DP  RH WIND       PRES   REMARKS
FERGUS FALLS   CLEAR     63  52  67 NW6       29.86R
WHEATON        CLEAR     63  52  67 NW3       29.90R
MORRIS         CLEAR     63  54  72 NW7       29.87R
ALEXANDRIA     CLEAR     65  52  62 NW8       29.88R
ELBOW LAKE     FAIR      64  52  65 NW6       29.87R
WADENA         CLEAR     57  48  72 W5        29.84S
GLENWOOD       CLEAR     63  54  72 NW7       29.87R
APPLETON       CLEAR     64  54  68 NW7       29.87R
BENSON         CLEAR     61  54  77 CALM      29.87R
ORTONVILLE     CLEAR     64  54  68 N6        29.89R
MADISON        CLEAR     63  57  82 NW6       29.89R
WILLMAR        FAIR      64  57  77 W5        29.88R
$$
MNZ033>034-036-042>043-049>051-058-059-030400-
   Central Minnesota

CITY           SKY/WX    TMP DP  RH WIND       PRES   REMARKS
ST CLOUD       CLEAR     62  52  69 NW9       29.83R
SAUK CENTRE    FAIR      63  53  68 NW6       29.86R
PAYNESVILLE    CLEAR     58  53  84 SW3       29.85R
AITKIN         CLEAR     59  48  67 CALM      29.80R
PINE RIVER     CLEAR     63  48  59 CALM      29.86R
BRAINERD       CLEAR     66  47  50 NW7       29.83R
STAPLES        CLEAR     55  48  76 W5        29.84S
LONG PRAIRIE   FAIR      63  50  63 NW5       29.86R
LITTLE FALLS   CLEAR     64  46  52 NW3       29.84R
LITCHFIELD     CLEAR     70  55  60 NW5       29.85R
BUFFALO        CLEAR     68  51  54 W5        29.83R
MAPLE LAKE     CLEAR     66  54  63 W3        29.84R
$$
MNZ037-044-045-052-053-030400-
   East Central Minnesota

CITY           SKY/WX    TMP DP  RH WIND       PRES   REMARKS
PRINCETON      CLEAR     63  54  72 W6        29.82R
MORA           CLEAR     59  52  77 CALM      29.82R
CAMBRIDGE      CLEAR     66  52  59 NW6       29.80R
RUSH CITY      PTCLDY    59  53  79 W5        29.81R
MOOSE LAKE     CLEAR     59  48  67 W6        29.77R
HINCKLEY       FAIR      61  52  72 W3        29.79R
CLOQUET        CLEAR     63  46  55 W7        29.77R
MCGREGOR       CLEAR     63  46  55 W6        29.80S
$$
MNZ071>073-080-081-089-090-097-098-030400-
   Southwest Minnesota

CITY           SKY/WX    TMP DP  RH WIND       PRES   REMARKS
MONTEVIDEO     CLEAR     64  52  63 NW5       29.89R
GRANITE FALLS  CLEAR     66  57  73 NW7       29.89R
CANBY          CLEAR     65  59  81 W3        29.90R
MARSHALL       CLEAR     64  55  72 NW5       29.90R
REDWOOD FALLS  CLEAR     68  59  73 NW7       29.85R
OLIVIA         CLEAR     63  55  77 NW3       29.86R
PIPESTONE      CLEAR     70  59  68 CALM      29.92R
WINDOM         CLEAR     64  57  77 CALM      29.89R
WORTHINGTON    CLEAR     64  55  72 NW6       29.91R
JACKSON        CLEAR     64  59  82 W5        29.90R
TRACY          CLEAR     68  59  73 NW6       29.89R
SLAYTON        CLEAR     64  59  84 CALM      29.91R
$$
MNZ065>067-074>077-082>085-091>093-030400-
   South Central Minnesota

CITY           SKY/WX    TMP DP  RH WIND       PRES   REMARKS
MANKATO        CLEAR     70  54  56 NW8       29.84R
NEW ULM        CLEAR     64  57  77 NW5       29.85R
ST JAMES       CLEAR     64  59  82 W6        29.87R
FAIRMONT       CLEAR     70  54  56 NW9       29.86R
GLENCOE        CLEAR     64  57  77 W6        29.83R
FARIBAULT      CLEAR     68  57  68 NW8       29.83R
OWATONNA       CLEAR     66  55  68 NW8       29.83R
WASECA         CLEAR     63  55  77 NW6       29.85R
ALBERT LEA     CLEAR     70  57  64 NW3       29.83R
$$
MNZ078>079-086>088-094>096-030400-
   Southeast Minnesota

CITY           SKY/WX    TMP DP  RH WIND       PRES   REMARKS
ROCHESTER      CLEAR     67  59  75 W10       29.81R
RED WING       CLEAR     72  55  56 NW6       29.77R
STANTON        CLEAR     67  56  65 W3        29.80R
DODGE CENTER   CLEAR     68  57  68 NW10      29.82R
WINONA         MOCLDY    73  63  68 NW3       29.75R
AUSTIN         CLEAR     70  57  64 NW7       29.82R
PRESTON        CLEAR     68  58  68 NW9       29.80R
$$
ABBREVIATIONS USED IN REMARKS
   TC - TEMPERATURES IN CELSIUS
  WCI - WIND CHILL INDEX
   HX - HEAT INDEX
  VSB - VISIBILITY
$$



USA.gov is the U.S. government's official web portal to all federal, state and local government web resources and services.